Weather History for KPCZ - October, 2014

Change the Weather History Date:

Sunday, October 12, 2014

  Actual Average Record
Temperature  
Mean Temperature 47 °F -  
Max Temperature 63 °F 61 °F 80 °F (2008)
Min Temperature 31 °F 38 °F 21 °F (1967)
Degree Days  
Heating Degree Days 18    
Moisture  
Dew Point 37 °F    
Average Humidity 73    
Maximum Humidity 96    
Minimum Humidity 33    
Precipitation  
Precipitation 0.00 in - - ()
Sea Level Pressure  
Sea Level Pressure 30.01 in    
Wind  
Wind Speed 4 mph (SE)    
Max Wind Speed 15 mph    
Max Gust Speed 21 mph    
Visibility 10 miles    
Events Rain    
Averages and records for this station are not official NWS values.
T = Trace of Precipitation, MM = Missing Value Source: NWS Daily Summary

Daily Weather History Graph

Daily Weather History Graph

Search for Another Location

Airport or City:

Trip Planner

Search our weather history database for the weather conditions in past years. The results will help you decide how hot, cold, wet, or windy it might be!

Date:

Astronomy

Oct. 12, 2014 Rise Set
Actual Time 7:07 AM CDT 6:17 PM CDT
Civil Twilight 6:38 AM CDT 6:46 PM CDT
Nautical Twilight 6:04 AM CDT 7:19 PM CDT
Astronomical Twilight 5:30 AM CDT 7:53 PM CDT
Moon 9:27 PM CDT (10/12) 11:36 AM CDT (10/12)
Length of Visible Light 12h 08m
Length of Day
11h 09m
Waning Gibbous, 79% of the Moon is Illuminated
Oct 12
Waning Gibbous
Oct 15
Last Quarter
Oct 23
New
Oct 30
First Quarter
Nov 6
Full

Hourly Weather History & Observations

Time (CDT) Temp. Windchill Dew Point Humidity Pressure Visibility Wind Dir Wind Speed Gust Speed Precip Events Conditions
12:15 AM 34.3 °F - 32.9 °F 94% 30.12 in 10.0 mi Calm Calm - N/A   Clear
12:35 AM 33.6 °F - 32.2 °F 94% 30.11 in 10.0 mi Calm Calm - N/A   Clear
12:55 AM 33.3 °F - 32.0 °F 95% 30.10 in 10.0 mi Calm Calm - N/A   Clear
1:15 AM 33.3 °F - 32.0 °F 95% 30.11 in 10.0 mi Calm Calm - N/A   Clear
1:35 AM 33.1 °F - 32.0 °F 96% 30.10 in 10.0 mi Calm Calm - N/A   Clear
1:55 AM 33.3 °F - 32.0 °F 95% 30.10 in 10.0 mi Calm Calm - N/A   Clear
2:15 AM 32.7 °F - 31.8 °F 96% 30.10 in 10.0 mi Calm Calm - N/A   Clear
2:35 AM 32.9 °F - 31.8 °F 96% 30.09 in 10.0 mi Calm Calm - N/A   Clear
2:55 AM 32.0 °F - 31.1 °F 96% 30.09 in 10.0 mi Calm Calm - N/A   Clear
3:15 AM 32.5 °F - 31.6 °F 96% 30.09 in 10.0 mi Calm Calm - N/A   Clear
3:35 AM 33.3 °F - 32.0 °F 95% 30.08 in 10.0 mi Calm Calm - N/A   Clear
3:55 AM 33.4 °F - 32.0 °F 94% 30.08 in 10.0 mi Calm Calm - N/A   Clear
4:15 AM 33.1 °F - 31.8 °F 95% 30.08 in 10.0 mi Calm Calm - N/A   Clear
4:35 AM 32.4 °F - 31.3 °F 96% 30.09 in 10.0 mi Calm Calm - N/A   Clear
4:55 AM 32.5 °F - 31.1 °F 94% 30.09 in 10.0 mi Calm Calm - N/A   Clear
5:15 AM 34.0 °F - 32.2 °F 93% 30.08 in 10.0 mi Calm Calm - N/A   Clear
5:35 AM 33.8 °F - 32.0 °F 93% 30.09 in 10.0 mi Calm Calm - N/A   Clear
5:55 AM 32.9 °F - 31.6 °F 95% 30.09 in 7.0 mi Calm Calm - N/A   Clear
6:15 AM 32.4 °F - 31.3 °F 96% 30.08 in 10.0 mi Calm Calm - N/A   Clear
6:35 AM 31.5 °F - 30.0 °F 94% 30.08 in 10.0 mi Calm Calm - N/A   Clear
6:55 AM 31.8 °F - 30.4 °F 94% 30.08 in 7.0 mi Calm Calm - N/A   Clear
7:15 AM 32.0 °F - 30.9 °F 96% 30.08 in 7.0 mi Calm Calm - N/A   Clear
7:35 AM 32.0 °F - 30.9 °F 96% 30.08 in 7.0 mi Calm Calm - N/A   Clear
7:55 AM 32.7 °F - 31.8 °F 96% 30.08 in 10.0 mi Calm Calm - N/A   Clear
8:15 AM 34.7 °F - 33.1 °F 94% 30.08 in 7.0 mi Calm Calm - N/A   Clear
8:35 AM 37.8 °F - 36.5 °F 95% 30.09 in 10.0 mi Calm Calm - N/A   Clear
8:55 AM 40.8 °F - 39.4 °F 95% 30.09 in 10.0 mi Calm Calm - N/A   Clear
9:15 AM 43.3 °F - 39.4 °F 86% 30.08 in 10.0 mi Calm Calm - N/A   Clear
9:35 AM 46.4 °F 44.3 °F 39.6 °F 77% 30.08 in 10.0 mi South 4.6 mph - N/A   Clear
9:55 AM 49.5 °F - 40.6 °F 72% 30.07 in 10.0 mi SSE 3.5 mph - N/A   Clear
10:15 AM 52.0 °F - 40.3 °F 64% 30.06 in 10.0 mi SSE 4.6 mph - N/A   Clear
10:35 AM 54.3 °F - 38.7 °F 55% 30.05 in 10.0 mi SSE 11.5 mph - N/A   Clear
10:55 AM 56.5 °F - 39.4 °F 53% 30.05 in 10.0 mi SSE 12.7 mph 17.3 mph N/A   Clear
11:15 AM 56.8 °F - 36.7 °F 47% 30.04 in 10.0 mi South 11.5 mph - N/A   Clear
11:35 AM 58.3 °F - 35.2 °F 42% 30.03 in 10.0 mi SSE 13.8 mph 19.6 mph N/A   Clear
11:55 AM 59.2 °F - 35.4 °F 41% 30.03 in 10.0 mi SSE 12.7 mph - N/A   Clear
12:15 PM 59.5 °F - 36.5 °F 42% 30.02 in 10.0 mi SE 10.4 mph - N/A   Clear
12:35 PM 60.1 °F - 34.9 °F 39% 30.01 in 10.0 mi SSE 13.8 mph - N/A   Clear
12:55 PM 60.8 °F - 34.0 °F 37% 30.00 in 10.0 mi SSE 15.0 mph - N/A   Clear
1:15 PM 61.7 °F - 34.5 °F 36% 29.99 in 10.0 mi SE 15.0 mph 18.4 mph N/A   Clear
1:35 PM 61.3 °F - 34.7 °F 37% 29.98 in 10.0 mi SSE 12.7 mph 16.1 mph N/A   Clear
1:55 PM 62.2 °F - 34.5 °F 36% 29.96 in 10.0 mi SSE 11.5 mph - N/A   Clear
2:15 PM 62.2 °F - 33.4 °F 34% 29.95 in 10.0 mi SE 12.7 mph 18.4 mph N/A   Clear
2:35 PM 63.1 °F - 33.8 °F 33% 29.94 in 10.0 mi ESE 13.8 mph 18.4 mph N/A   Clear
2:55 PM 63.1 °F - 33.8 °F 33% 29.94 in 10.0 mi SSE 11.5 mph 20.7 mph N/A   Clear
3:15 PM 61.7 °F - 35.1 °F 37% 29.93 in 10.0 mi SE 10.4 mph 17.3 mph N/A   Clear
3:35 PM 61.2 °F - 37.0 °F 41% 29.93 in 10.0 mi SE 8.1 mph - N/A   Clear
3:55 PM 61.3 °F - 37.8 °F 42% 29.92 in 10.0 mi ESE 9.2 mph - N/A   Clear
4:15 PM 59.9 °F - 36.9 °F 42% 29.91 in 10.0 mi ESE 11.5 mph 16.1 mph N/A   Clear
4:35 PM 59.2 °F - 36.7 °F 43% 29.91 in 10.0 mi ESE 9.2 mph - N/A   Mostly Cloudy
4:55 PM 58.6 °F - 37.4 °F 45% 29.92 in 10.0 mi ESE 9.2 mph - N/A   Mostly Cloudy
5:15 PM 58.3 °F - 38.5 °F 48% 29.91 in 10.0 mi ESE 9.2 mph - N/A   Scattered Clouds
5:35 PM 57.6 °F - 39.6 °F 51% 29.91 in 10.0 mi ESE 10.4 mph - N/A   Clear
5:55 PM 56.8 °F - 39.7 °F 53% 29.91 in 10.0 mi ESE 10.4 mph - N/A   Scattered Clouds
6:15 PM 56.5 °F - 40.3 °F 55% 29.90 in 10.0 mi ESE 10.4 mph - N/A   Mostly Cloudy
6:35 PM 56.3 °F - 40.8 °F 56% 29.91 in 10.0 mi ESE 10.4 mph 17.3 mph N/A   Overcast
6:55 PM 55.6 °F - 41.5 °F 59% 29.92 in 10.0 mi ESE 9.2 mph 17.3 mph N/A   Overcast
7:15 PM 55.4 °F - 42.6 °F 62% 29.92 in 10.0 mi ESE 11.5 mph - N/A   Overcast
7:35 PM 54.9 °F - 43.5 °F 66% 29.92 in 10.0 mi ESE 9.2 mph - N/A   Overcast
7:55 PM 54.5 °F - 44.1 °F 68% 29.92 in 10.0 mi ESE 9.2 mph - N/A   Overcast
8:15 PM 54.5 °F - 44.6 °F 69% 29.93 in 10.0 mi SE 10.4 mph 16.1 mph N/A   Overcast
8:35 PM 53.8 °F - 44.8 °F 72% 29.93 in 10.0 mi SE 10.4 mph - N/A   Overcast
8:55 PM 53.6 °F - 46.4 °F 77% 29.93 in 10.0 mi SE 9.2 mph 17.3 mph N/A Rain Rain
9:15 PM 51.8 °F - 48.7 °F 89% 29.93 in 10.0 mi SE 9.2 mph - N/A   Light Drizzle
9:35 PM 51.4 °F - 49.1 °F 92% 29.93 in 10.0 mi ESE 8.1 mph - N/A   Overcast
9:55 PM 51.1 °F - 49.1 °F 93% 29.93 in 10.0 mi ESE 4.6 mph - N/A   Overcast
10:15 PM 51.1 °F - 49.3 °F 94% 29.92 in 10.0 mi ESE 3.5 mph - N/A   Overcast
10:35 PM 50.9 °F - 49.1 °F 94% 29.92 in 5.0 mi East 3.5 mph - N/A   Overcast
10:55 PM 50.9 °F - 49.3 °F 94% 29.91 in 7.0 mi East 4.6 mph - N/A   Overcast
11:15 PM 50.9 °F - 49.1 °F 94% 29.91 in 10.0 mi ESE 3.5 mph - N/A   Overcast
11:35 PM 50.5 °F - 49.1 °F 95% 29.90 in 10.0 mi East 3.5 mph - N/A   Overcast
11:55 PM 50.7 °F - 49.1 °F 94% 29.90 in 10.0 mi Calm Calm - N/A   Overcast